Content
SEND FEEDBACK

Daily
Averages
Monthly
Summary
United States of America

INARAJAN, GUAM


Home > North America > United States > Guam
Elevation: 280 feet     Latitude: 13 18N     Longitude: 144 44E

WEATHER
 
SELECT A DAY
Number of Records: 342,637;   Date Range: 1/1/95 - 9/20/14
 
SHARE

PRINT THIS DATA

[ ← Previous Day ]
WEATHER ALMANAC - JUNE 27, 2013
[ Next Day → ]
[ °C ]   °F
We're sorry. There is no daily almanac available for Inarajan, Guam on June 27, 2013.
WEATHER BY HOUR - JUNE 27, 2013
[ °C ]   °F
Local TimeTemperatureDewpointHumidityBarometerVisibilityWind DirectionWind SpeedGust SpeedPrecipitationEventsConditions
12:55 AM80.4 °F74.8 °F83 %29.82 in10.0 miESE (110°)10.4 mphThunderstormPartly Cloudy
1:26 AM78.8 °F75.2 °F89 %29.82 in10.0 miENE (60°)11.5 mphThunderstormThunderstorm
1:55 AM78.8 °F74.3 °F86 %29.82 in10.0 miENE (60°)10.4 mphThunderstormThunderstorm
1:56 AM78.8 °F75.2 °F89 %29.82 in10.0 miENE (60°)10.4 mphScattered Clouds
2:01 AM78.8 °F75.2 °F89 %29.82 in10.0 miNE (50°)9.2 mphMostly Cloudy
2:04 AM78.8 °F75.2 °F89 %29.82 in10.0 miNE (50°)10.4 mphScattered Clouds
2:09 AM78.8 °F75.2 °F89 %29.82 in10.0 miNE (50°)10.4 mphThunderstormThunderstorm
2:15 AM78.8 °F75.2 °F89 %29.83 in10.0 miNE (50°)19.6 mphThunderstormThunderstorm
2:21 AM77.0 °F73.4 °F89 %29.83 in10.0 miNE (50°)18.4 mphThunderstormThunderstorm
2:24 AM77.0 °F73.4 °F89 %29.83 in10.0 miNE (50°)18.4 mphRain-ThunderstormLight Thunderstorms and Rain
2:25 AM77.0 °F73.4 °F89 %29.83 in9.0 miNE (50°)19.6 mphRain-ThunderstormLight Thunderstorms and Rain
2:30 AM77.0 °F73.4 °F89 %29.83 in2.5 miNE (40°)19.6 mphRain-ThunderstormHeavy Thunderstorms and Rain
2:31 AM77.0 °F73.4 °F89 %29.82 in2.0 miNNE (30°)19.6 mphRain-ThunderstormHeavy Thunderstorms and Rain
2:33 AM77.0 °F73.4 °F89 %29.82 in1.8 miNNE (20°)19.6 mphRain-ThunderstormHeavy Thunderstorms and Rain
2:37 AM75.2 °F73.4 °F94 %29.82 in2.0 miNNE (20°)16.1 mphRain-ThunderstormThunderstorms and Rain
2:39 AM75.2 °F73.4 °F94 %29.82 in2.5 miNNE (30°)15.0 mphRain-ThunderstormThunderstorms and Rain
2:40 AM75.2 °F73.4 °F94 %29.83 in3.0 miNNE (30°)15.0 mphRain-ThunderstormLight Thunderstorms and Rain
2:46 AM75.2 °F73.4 °F94 %29.82 in9.0 miNNE (20°)10.4 mphRain-ThunderstormThunderstorms and Rain
2:47 AM75.2 °F73.4 °F94 %29.81 in8.0 miNNE (20°)9.2 mphRain-ThunderstormThunderstorms and Rain
2:55 AM74.8 °F73.0 °F94 %29.80 in8.0 miNorth (10°)3.5 mph0.29 inRain-ThunderstormLight Thunderstorms and Rain
2:56 AM75.2 °F73.4 °F94 %29.80 in8.0 miCalmRain-ThunderstormLight Rain
3:12 AM75.2 °F73.4 °F94 %29.78 in10.0 miESE (110°)4.6 mphPartly Cloudy
3:14 AM75.2 °F73.4 °F94 %29.78 in10.0 miESE (120°)5.8 mphPartly Cloudy
3:55 AM77.0 °F74.7 °F92 %29.80 in10.0 miNE (50°)5.8 mph0.01 inScattered Clouds
4:05 AM77.0 °F75.2 °F94 %29.79 in10.0 miNorth (10°)3.5 mphMostly Cloudy
4:10 AM77.0 °F75.2 °F94 %29.79 in7.0 miNE (50°)8.1 mphMostly Cloudy
4:11 AM77.0 °F75.2 °F94 %29.79 in5.0 miNNE (30°)8.1 mphRainHeavy Rain
4:13 AM77.0 °F75.2 °F94 %29.79 in4.0 miNNE (20°)6.9 mphRainHeavy Rain
4:14 AM77.0 °F75.2 °F94 %29.79 in3.0 miNNE (30°)8.1 mphRainHeavy Rain
4:15 AM77.0 °F75.2 °F94 %29.79 in3.0 miNNE (30°)9.2 mphRainHeavy Rain
4:21 AM78.8 °F75.2 °F89 %29.79 in5.0 miNE (40°)11.5 mphRainLight Rain
4:24 AM78.8 °F73.4 °F83 %29.79 in9.0 miNE (50°)10.4 mphOvercast
4:25 AM78.8 °F71.6 °F78 %29.79 in10.0 miNE (50°)10.4 mphMostly Cloudy
4:27 AM78.8 °F71.6 °F78 %29.79 in10.0 miENE (60°)10.4 mphMostly Cloudy
4:31 AM78.8 °F73.4 °F83 %29.79 in10.0 miENE (60°)9.2 mphMostly Cloudy
4:33 AM77.0 °F73.4 °F89 %29.79 in10.0 miENE (70°)9.2 mphMostly Cloudy
4:36 AM77.0 °F75.2 °F94 %29.79 in10.0 miENE (70°)9.2 mphScattered Clouds
4:55 AM78.1 °F74.7 °F89 %29.79 in10.0 miEast (90°)9.2 mph0.07 inClear
5:55 AM78.3 °F75.2 °F90 %29.81 in10.0 miENE (70°)8.1 mphScattered Clouds
6:11 AM78.8 °F75.2 °F89 %29.81 in10.0 miEast (90°)6.9 mphRainLight Rain
6:28 AM78.8 °F75.2 °F89 %29.81 in10.0 miEast (90°)5.8 mphPartly Cloudy
6:55 AM79.9 °F75.9 °F88 %29.83 in10.0 miEast (80°)9.2 mph0.00 inPartly Cloudy
7:30 AM78.8 °F75.2 °F89 %29.83 in9.0 miENE (60°)10.4 mphLight Drizzle
7:37 AM78.8 °F75.2 °F89 %29.83 in9.0 miNE (50°)9.2 mphLight Drizzle
7:40 AM80.6 °F75.2 °F84 %29.83 in9.0 miNE (50°)12.7 mphScattered Clouds
7:48 AM80.6 °F75.2 °F84 %29.84 in10.0 miNNE (30°)20.7 mphMostly Cloudy
7:54 AM78.8 °F75.2 °F89 %29.83 in10.0 miNNE (30°)18.4 mph24.2 mphMostly Cloudy
7:55 AM78.8 °F75.2 °F89 %29.83 in10.0 miNNE (30°)20.7 mph25.3 mph0.00 inMostly Cloudy
8:02 AM77.0 °F73.4 °F89 %29.84 in10.0 miNNE (30°)19.6 mph25.3 mphMostly Cloudy
8:27 AM77.0 °F73.4 °F89 %29.83 in10.0 miENE (70°)18.4 mphMostly Cloudy
8:30 AM77.0 °F73.4 °F89 %29.83 in7.0 miEast (80°)15.0 mphRainRain
8:36 AM77.0 °F73.4 °F89 %29.82 in3.0 miEast (90°)13.8 mphRainRain
8:38 AM77.0 °F73.4 °F89 %29.82 in2.5 miEast (80°)12.7 mphRainRain
8:40 AM77.0 °F73.4 °F89 %29.81 in3.0 miEast (80°)11.5 mphRainLight Rain
8:50 AM77.0 °F73.4 °F89 %29.82 in10.0 miEast (80°)11.5 mphPartly Cloudy
8:55 AM76.8 °F73.0 °F88 %29.83 in10.0 miEast (90°)9.2 mph0.03 inPartly Cloudy
9:50 AM78.8 °F75.2 °F89 %29.83 in10.0 miEast (90°)10.4 mphLight Drizzle
9:55 AM77.9 °F75.0 °F91 %29.83 in10.0 miEast (90°)8.1 mph0.00 inLight Drizzle
9:58 AM78.8 °F75.2 °F89 %29.83 in10.0 miEast (100°)8.1 mphScattered Clouds
10:06 AM78.8 °F75.2 °F89 %29.83 in10.0 miEast (100°)8.1 mphMostly Cloudy
10:13 AM77.0 °F75.2 °F94 %29.83 in10.0 miEast (90°)12.7 mphScattered Clouds
10:25 AM78.8 °F75.2 °F89 %29.82 in10.0 miESE (110°)11.5 mphRainLight Rain
10:40 AM78.8 °F75.2 °F89 %29.83 in10.0 miESE (110°)9.2 mphClear
10:55 AM78.8 °F75.4 °F89 %29.83 in10.0 miESE (120°)9.2 mph0.00 inThunderstormClear
11:55 AM79.7 °F75.2 °F86 %29.84 in10.0 miESE (120°)10.4 mphPartly Cloudy
12:03 PM80.6 °F75.2 °F84 %29.84 in10.0 miESE (120°)6.9 mphLight Drizzle
12:36 PM78.8 °F77.0 °F94 %29.84 in3.0 miSSE (150°)9.2 mphRainLight Rain
12:39 PM78.8 °F77.0 °F94 %29.83 in4.0 miSSE (150°)9.2 mphRainLight Rain
12:41 PM78.8 °F77.0 °F94 %29.83 in5.0 miSSE (150°)8.1 mphRainLight Rain
12:44 PM78.8 °F77.0 °F94 %29.83 in10.0 miSSE (150°)10.4 mphRainLight Rain
12:55 PM79.0 °F76.5 °F92 %29.83 in10.0 miSSE (150°)10.4 mph0.04 inRainLight Rain
1:36 PM78.8 °F75.2 °F89 %29.80 in10.0 miSSE (150°)9.2 mphClear
1:55 PM78.8 °F73.9 °F85 %29.80 in10.0 miSE (140°)8.1 mph0.00 inClear
2:55 PM79.9 °F74.3 °F83 %29.80 in10.0 miSSE (150°)9.2 mphPartly Cloudy
3:55 PM80.8 °F75.2 °F83 %29.76 in10.0 miESE (110°)9.2 mphClear
4:55 PM80.6 °F75.7 °F85 %29.76 in10.0 miEast (90°)6.9 mphClear
5:55 PM80.4 °F75.0 °F84 %29.77 in10.0 miEast (80°)10.4 mphClear
6:55 PM79.7 °F75.6 °F87 %29.79 in10.0 miENE (70°)11.5 mphScattered Clouds
7:04 PM80.6 °F75.2 °F84 %29.79 in10.0 miENE (70°)10.4 mphMostly Cloudy
7:08 PM80.6 °F75.2 °F84 %29.79 in10.0 miEast (80°)11.5 mphMostly Cloudy
7:09 PM80.6 °F75.2 °F84 %29.79 in10.0 miEast (80°)11.5 mphMostly Cloudy
7:11 PM80.6 °F75.2 °F84 %29.79 in10.0 miEast (80°)11.5 mphMostly Cloudy
7:14 PM80.6 °F75.2 °F84 %29.80 in10.0 miEast (80°)11.5 mphScattered Clouds
7:28 PM80.6 °F75.2 °F84 %29.80 in10.0 miEast (80°)11.5 mphScattered Clouds
7:29 PM80.6 °F75.2 °F84 %29.80 in10.0 miEast (80°)11.5 mphMostly Cloudy
7:33 PM80.6 °F75.2 °F84 %29.80 in10.0 miEast (80°)11.5 mphScattered Clouds
7:55 PM79.7 °F75.2 °F86 %29.81 in10.0 miEast (80°)18.4 mphScattered Clouds
7:56 PM78.8 °F75.2 °F89 %29.81 in9.0 miEast (80°)18.4 mphRainLight Rain
7:57 PM78.8 °F75.2 °F89 %29.81 in9.0 miENE (70°)19.6 mphRainLight Rain
7:58 PM78.8 °F75.2 °F89 %29.81 in9.0 miENE (70°)18.4 mphRainLight Rain
7:59 PM78.8 °F75.2 °F89 %29.81 in9.0 miEast (80°)17.3 mphRainLight Rain
8:07 PM78.8 °F75.2 °F89 %29.81 in10.0 miEast (80°)12.7 mphMostly Cloudy
8:08 PM78.8 °F75.2 °F89 %29.81 in10.0 miEast (80°)12.7 mphMostly Cloudy
8:22 PM78.8 °F77.0 °F94 %29.81 in10.0 miEast (80°)12.7 mphMostly Cloudy
8:24 PM78.8 °F77.0 °F94 %29.81 in10.0 miEast (80°)10.4 mphMostly Cloudy
8:32 PM78.8 °F77.0 °F94 %29.81 in10.0 miEast (80°)12.7 mphMostly Cloudy
8:36 PM78.8 °F77.0 °F94 %29.81 in10.0 miEast (80°)13.8 mphMostly Cloudy
8:48 PM80.6 °F77.0 °F89 %29.81 in10.0 miEast (90°)11.5 mphScattered Clouds
8:54 PM80.6 °F77.0 °F89 %29.81 in10.0 miEast (90°)10.4 mphMostly Cloudy
8:55 PM79.9 °F76.6 °F90 %29.82 in10.0 miEast (90°)9.2 mph0.00 inMostly Cloudy
9:03 PM80.6 °F77.0 °F89 %29.82 in10.0 miEast (90°)10.4 mphScattered Clouds
9:55 PM79.7 °F76.3 °F89 %29.82 in10.0 miEast (100°)9.2 mphPartly Cloudy
10:30 PM80.6 °F77.0 °F89 %29.83 in10.0 miEast (100°)6.9 mphMostly Cloudy
10:34 PM80.6 °F77.0 °F89 %29.83 in10.0 miEast (90°)6.9 mphMostly Cloudy
10:55 PM80.1 °F76.3 °F88 %29.83 in10.0 miEast (100°)8.1 mphMostly Cloudy
11:01 PM80.6 °F77.0 °F89 %29.83 in10.0 miEast (100°)9.2 mphMostly Cloudy
11:02 PM80.6 °F77.0 °F89 %29.83 in10.0 miEast (100°)8.1 mphMostly Cloudy
11:06 PM80.6 °F77.0 °F89 %29.83 in10.0 miEast (100°)9.2 mphMostly Cloudy
11:09 PM80.6 °F75.2 °F84 %29.83 in10.0 miEast (100°)9.2 mphScattered Clouds
11:11 PM80.6 °F77.0 °F89 %29.83 in10.0 miEast (100°)9.2 mphMostly Cloudy
11:15 PM80.6 °F77.0 °F89 %29.83 in10.0 miEast (100°)9.2 mphScattered Clouds
11:54 PM78.8 °F75.2 °F89 %29.82 in10.0 miEast (90°)6.9 mphMostly Cloudy
11:55 PM79.7 °F75.6 °F87 %29.82 in10.0 miEast (90°)5.8 mphMostly Cloudy
Hourly data recorded from PGUA, located miles away from Inarajan, Guam







STORIES FROM OUR PARTNERS